SCP
0 -0 -0 -0 -0 -0 0 0 0 0 0 -0 -0 0 -0 0 -0 0 0 0 0 0 0 0 0 0 0 0 0 0 0 0 0 0 0 0 0 0 0 0 0 0 0 0
0 -0 -0 -0 -0 -0 0 0 0 0 0 0 0 -0 0 -0 -0 0 0 0 0 0 0 0 0 0 0 0 0 0 0 0 0 0 0 0 0 0 0 0 0 0 0 0
0 -0 -0 -0 -0 -0 0 0 0 0 0 0 0 0 0 0 0 0 0 0 0 0 0 0 0 0 0 0 0 0 0 0 0 0 0 0 0 0 0 0 0 0 0 0
0 -0 -0 -0 -0 -0 0 -0 0 0 0 -0 0 0 0 -0 -0 0 0 0 0 0 0 0 0 0 0 0 0 0 0 0 0 0 0 0 0 0 0 0 0 0 0 0
0 -0 -0 -0 -0 0 0 0 0 0 0 -0 -0 -0 0 0 0 -0 0 0 0 0 0 0 0 0 0 0 0 0 0 0 0 0 0 0 0 0 0 0 0 0 0 0
0 -0 -0 -0 -0 0 0 0 0 0 0 0 0 -0 0 -0 -0 -0 -0 0 -0 -0 0 0 0 0 0 0 0 0 0 0 0 0 0 0 0 0 0 0 0 0 0 0
0 -0 -0 -0 -0 -0 0 0 0 0 0 0 0 0 0 0 0 0 0 0 0 0 -0 -0 0 0 0 0 0 0 0 0 0 0 0 0 0 0 0 0 0 0 0 0
0 -0 -0 -0 -0 -0 -0 0 0 0 0 0 0 0 0 0 0 0 0 0 -0 -0 -0 -0 0 0 0 0 0 0 0 0 0 0 0 0 0 0 0 0 0 0 0 0
0 -0 -0 -0 -0 -0 0 0 0 0 0 0 0 0 0 0 0 0 0 0 0 0 0 0 -0 0 0 0 0 0 0 0 0 0 0 0 0 0 0 0 0 0 0 0
0 -0 -0 -0 -0 -0 0 0 0 0 0 0 0 0 0 0 0 0 0 0 0 0 0 0 0 0 0 0 0 0 0 0 0 0 0 0 0 0 0 0 0 0 0 0
-0 0 -0 -0 -0 -0 0 0 0 0 0 0 0 0 0 0 0 0 0 0 0 0 0 0 0 0 0 0 0 0 0 0 0 0 0 0 0 0 0 0 0 0 0 0
0 -0 -0 -0 -0 -0 0 0 0 0 0 0 0 0 0 0 0 0 0 0 0 0 0 0 0 0 0 0 0 0 0 0 0 0 0 0 0 0 0 0 0 0 0 0
0 0 0 -0 0 0 0 0 0 0 0 0 0 0 0 0 0 0 0 0 0 0 0 0 0 0 0 0 0 0 0 0 0 0 0 0 -0 0 0 0 0 0 0 0
0 0 0 -0 0 0 0 0 0 0 0 0 0 0 0 0 0 0 0 0 0 0 0 0 0 0 0 0 0 0 0 0 0 0 0 0 0 0 0 0 0 0 0 0
0 0 -0 -0 0 0 0 0 0 0 0 0 0 0 0 0 0 0 0 0 0 0 0 0 0 0 0 0 0 0 0 0 0 0 0 0 0 0 0 0 0 0 0 0
-0 0 -0 0 0 0 0 0 0 0 0 0 0 0 0 0 0 0 0 0 0 0 0 0 0 0 0 0 0 0 0 0 0 0 0 0 0 0 0 0 0 0 0 0
-0 -0 0 0 0 0 0 0 0 0 0 0 0 0 0 0 0 0 0 0 0 0 0 0 0 0 0 0 0 0 0 0 0 0 0 0 0 0 0 0 0 0 0 0
0 -0 0 0 0 0 0 0 0 0 0 0 0 0 0 0 0 0 0 0 0 0 0 0 0 0 0 0 0 0 0 0 0 0 0 0 0 0 0 0 0 0 0 0
0 0 0 0 0 0 0 0 0 -0 -0 0 0 0 0 0 0 0 0 0 0 0 0 0 0 0 -0 0 -0 0 0 0 0 0 0 0 0 0 0 0 0 0 0 0
0 0 0 0 0 0 0 0 0 0 0 0 0 0 0 0 0 0 0 -0 0 0 0 0 -0 0 0 -0 -0 -0 0 0 0 0 0 0 0 0 0 0 0 0 0 0
0 0 0 -0 0 0 0 0 0 0 0 0 0 0 0 0 0 0 0 0 0 0 0 0 0 0 0 0 0 0 0 0 0 0 0 0 0 0 0 0 0 0 0 0
-0 0 0 0 0 0 0 0 0 0 0 0 0 0 0 0 0 0 0 0 0 0 0 0 0 0 0 0 0 0 0 0 0 0 0 0 0 0 0 0 0 0 0 0
-0 0 0 0 0 0 0 0 0 0 0 0 0 0 0 0 0 0 0 0 0 0 0 0 0 0 0 0 0 0 0 0 0 0 0 0 0 0 0 0 0 0 0 0
0 0 0 0 0 0 0 0 0 0 0 0 0 0 0 0 0 0 0 0 0 0 0 0 0 0 0 0 0 0 0 0 0 0 0 0 0 0 0 0 0 0 0 0
-0 0 0 0 0 0 0 0 0 0 0 0 0 0 0 0 0 0 0 0 0 0 0 0 0 0 0 0 0 0 0 0 0 0 0 0 0 0 0 0 0 0 0 0
0 0 0 0 0 0 0 0 0 0 0 0 0 0 0 0 0 0 0 0 0 0 0 0 0 0 0 0 0 0 0 0 0 0 0 0 0 0 0 0 0 0 0 0
0 0 0 0 0 0 0 0 0 0 0 0 0 0 0 0 0 0 0 0 0 0 0 0 0 0 0 0 0 0 0 0 0 0 0 0 0 0 0 0 0 0 0 0
Wind_Speed_500mb
42 39 43 43 32 12 17 13 4 29 23 13 6 7 5 8 20 19 13 9 13 9 10 11 9 8 10 23 9 8 9 7 9 8 4 8 14 7 3 11 11 4 0 10
37 34 42 44 34 20 7 5 15 25 10 7 7 6 9 13 14 16 11 8 12 10 7 10 11 8 10 25 11 6 3 6 9 5 7 3 6 8 6 2 1 8 13 12
33 30 36 40 31 21 10 4 3 18 33 13 7 6 7 6 16 12 12 8 5 7 11 10 10 8 12 12 16 20 9 7 5 3 9 4 3 4 7 5 7 15 3 27
32 26 32 36 28 24 10 10 5 5 6 14 13 4 3 6 8 9 21 9 12 5 9 15 9 8 8 16 16 10 5 7 9 12 9 2 1 4 2 1 7 5 28 21
30 21 26 31 23 22 24 8 5 11 8 3 4 8 5 6 4 8 8 14 17 9 8 1 12 10 3 1 8 6 4 9 9 5 7 2 2 3 9 6 7 15 29 20
26 17 19 26 22 17 14 16 13 7 5 3 1 2 4 5 2 11 8 9 9 18 12 11 13 14 13 8 2 5 4 12 8 8 6 3 7 8 7 11 7 6 20 15
22 16 14 20 25 20 17 14 7 5 5 2 3 7 3 7 4 7 5 4 5 8 18 28 26 27 22 15 15 6 12 10 2 8 10 9 9 5 6 21 13 14 22 17
18 15 8 13 17 22 19 13 6 4 6 3 7 10 7 8 3 4 6 5 9 20 11 6 7 5 4 9 12 5 3 7 6 8 13 4 9 13 15 12 9 7 13 12
17 14 4 5 10 13 15 14 8 3 11 7 6 10 9 6 6 5 5 4 12 10 5 4 8 8 6 7 6 5 6 4 6 6 8 12 8 15 13 10 12 25 13 5
15 13 6 2 6 9 7 11 9 3 1 7 14 7 8 11 6 5 4 8 7 7 5 5 5 6 1 8 10 9 5 2 14 11 9 4 12 23 19 14 8 27 15 8
13 11 9 4 5 7 7 6 9 6 4 8 19 15 13 11 10 7 11 9 5 5 8 6 6 5 8 4 3 7 13 12 7 5 10 14 33 19 13 16 24 21 14 12
10 12 10 8 5 8 10 10 12 10 7 7 9 22 18 12 2 16 19 0 6 9 6 4 5 5 7 6 6 5 9 7 6 13 5 5 28 5 18 18 21 20 19 13
10 9 9 9 9 10 11 8 10 11 7 11 7 10 25 27 27 18 7 9 14 12 12 12 5 5 8 9 9 8 11 9 5 5 11 12 22 13 10 11 9 16 15 12
10 11 10 10 8 10 12 13 12 5 3 3 7 7 11 9 20 30 35 25 15 12 17 7 5 5 13 6 4 7 3 20 12 8 10 4 19 28 21 20 16 20 17 16
12 12 11 11 9 10 11 9 7 10 6 2 10 11 16 29 7 17 25 19 16 15 9 4 4 6 8 4 4 7 21 13 11 10 18 14 7 15 21 26 24 24 20 21
14 11 10 9 7 9 8 5 8 11 16 4 3 9 16 31 8 8 13 14 10 7 5 7 2 8 5 6 6 7 32 26 16 4 19 15 15 15 14 16 16 19 24 22
9 4 4 5 6 3 7 6 6 4 6 5 4 4 9 17 15 14 15 7 6 6 7 5 2 2 9 4 6 6 3 20 24 19 17 17 23 10 16 17 15 17 19 20
1 1 2 8 16 15 9 6 8 4 2 4 2 1 2 18 8 6 7 6 7 7 5 3 2 2 3 7 14 9 15 20 35 32 32 13 15 22 17 17 18 21 21 20
1 2 16 12 5 4 5 12 11 7 6 3 4 4 4 12 9 8 7 7 5 3 1 2 3 1 6 11 17 13 13 17 15 27 33 33 27 23 25 25 26 27 23 23
3 6 5 5 4 6 10 7 4 2 1 2 4 2 3 8 4 6 3 7 4 1 4 1 4 5 21 19 23 23 22 21 16 14 22 30 32 32 26 28 29 27 22 24
6 5 4 8 6 4 3 4 2 1 2 4 4 5 1 4 2 4 2 3 3 1 1 3 2 5 5 5 7 8 12 13 11 24 25 20 20 19 23 28 26 24 22 20
9 7 11 8 2 1 1 3 3 5 1 6 4 5 2 3 3 4 5 1 3 1 4 4 3 6 8 6 3 7 6 5 9 10 12 16 21 25 29 26 25 23 19 16
7 5 5 2 1 5 1 2 2 3 8 11 9 6 3 4 4 4 4 4 3 1 4 4 6 12 13 8 10 6 10 10 11 18 16 15 18 21 23 24 25 25 19 12
4 6 2 5 5 4 5 4 2 2 5 11 11 7 6 5 7 3 4 3 3 4 4 3 3 7 6 6 6 7 13 15 19 17 14 17 22 23 21 23 28 26 21 13
3 4 5 8 4 4 4 6 5 5 6 11 9 5 5 4 4 3 2 5 5 5 3 4 6 14 6 5 3 8 13 16 17 19 23 28 23 23 22 24 17 15 18 23
3 6 6 5 4 5 6 8 5 5 7 12 5 5 3 3 2 5 5 3 5 2 5 8 11 5 5 8 8 9 16 20 25 25 22 18 22 24 25 16 24 27 34 28
5 6 12 13 5 6 5 10 9 11 11 3 5 4 1 6 5 5 6 6 7 8 9 8 11 8 6 3 6 11 15 21 21 22 22 22 21 16 24 28 27 27 31 26
Wind_Direction_500mb
353 0 360 359 1 15 33 27 56 357 21 43 32 57 15 15 2 23 57 70 61 65 45 66 92 98 10 342 349 43 21 74 64 88 53 347 37 56 359 231 178 63 19 112
352 1 360 357 1 7 21 85 39 13 48 82 78 80 74 57 38 31 27 54 43 56 68 102 83 89 21 32 49 42 34 38 127 161 212 161 48 33 46 60 283 181 195 134
352 360 3 358 3 20 41 53 51 33 61 62 77 75 29 89 46 58 54 46 100 116 57 50 122 110 47 42 68 57 86 72 337 300 69 46 180 28 29 339 225 151 69 138
352 359 6 3 8 25 52 55 69 56 34 43 68 60 40 49 29 48 27 57 43 91 113 104 105 101 94 49 16 49 53 98 93 75 72 3 335 322 349 86 94 300 145 117
349 355 9 14 17 41 61 89 132 83 77 14 61 14 45 74 63 11 37 83 56 85 97 56 151 137 112 133 43 62 22 126 137 101 10 343 180 105 138 134 92 92 126 105
346 352 12 25 29 40 73 93 101 114 23 53 107 72 132 107 116 47 90 118 84 73 64 63 74 81 86 95 111 105 84 143 176 152 6 185 227 171 134 110 79 149 169 112
346 349 8 26 42 57 73 80 82 94 93 105 98 147 125 128 106 129 117 105 101 120 112 93 83 80 81 74 53 33 139 123 94 137 157 218 74 76 155 112 91 104 116 117
346 348 355 22 30 51 64 68 55 96 115 132 147 143 134 123 91 115 121 97 108 147 135 113 123 114 155 67 33 13 306 149 131 191 206 25 185 185 166 182 172 169 150 139
341 355 321 9 6 28 51 63 71 74 124 214 136 158 171 163 162 162 141 124 154 162 77 144 189 186 162 172 158 51 85 71 227 174 216 218 103 156 147 156 226 188 186 162
344 358 348 307 337 355 11 40 31 48 158 189 177 197 185 164 146 159 162 159 155 154 143 176 187 173 111 171 191 171 152 92 214 201 239 244 155 151 150 197 122 160 166 177
336 349 356 320 300 321 329 337 347 9 280 248 214 222 188 170 185 184 150 154 176 128 185 197 170 183 194 181 197 191 180 177 193 196 226 244 155 140 202 115 137 164 179 188
327 336 354 340 338 325 313 310 315 310 275 261 255 236 231 235 159 197 176 335 157 156 122 168 136 154 174 196 208 189 211 217 193 212 234 75 175 95 139 151 162 184 187 191
311 316 326 327 350 353 341 340 320 327 299 293 305 255 243 238 238 235 214 229 208 191 167 148 136 210 169 175 222 198 210 189 237 215 190 206 191 192 183 187 185 187 186 200
307 297 306 309 324 341 334 337 339 3 315 348 56 76 6 312 247 243 235 239 217 186 167 147 158 204 207 194 151 210 168 163 188 248 249 275 239 229 225 223 229 218 225 253
315 306 281 287 316 335 340 359 35 52 54 2 323 88 27 355 267 228 216 234 224 172 156 144 188 134 173 175 177 209 187 177 183 213 204 186 166 198 213 227 237 228 244 262
316 296 268 278 322 340 354 75 72 74 37 39 20 5 19 16 62 151 177 191 190 179 168 119 8 318 263 212 221 240 203 209 216 178 186 184 171 189 212 216 221 229 244 260
319 289 265 298 332 51 90 89 354 357 352 25 338 45 12 27 57 73 89 100 61 65 44 80 127 223 244 211 225 47 217 223 230 223 186 190 207 210 208 206 209 229 253 274
310 256 313 100 109 111 73 35 49 73 122 40 2 15 77 19 47 78 59 82 77 55 149 189 298 79 276 247 248 217 238 247 286 239 214 209 183 193 203 215 231 249 266 283
155 99 135 107 82 83 96 89 98 59 64 82 52 17 21 4 57 48 50 55 69 45 70 227 150 176 237 234 254 251 201 240 271 219 209 220 228 229 233 238 246 253 264 281
171 155 143 124 91 119 122 105 99 102 18 82 113 158 18 9 62 57 68 40 47 1 61 155 277 269 265 267 254 260 266 281 239 187 210 226 237 241 252 249 245 243 255 272
195 166 112 124 125 126 128 105 116 101 223 192 168 192 347 18 8 110 60 132 164 45 61 306 329 275 262 320 345 257 236 290 247 237 249 255 244 240 256 255 246 238 251 271
170 126 123 114 125 121 169 80 139 224 42 184 165 161 199 182 136 132 168 191 186 121 146 266 254 255 278 276 239 26 35 237 251 249 268 270 261 263 262 250 238 237 249 276
147 117 93 121 129 72 116 88 166 244 183 178 169 167 186 147 160 111 191 218 216 109 201 236 246 284 299 305 239 280 341 322 297 264 261 270 283 276 254 244 247 236 242 265
149 134 50 198 181 215 182 209 217 233 194 176 171 143 186 166 177 146 251 100 226 235 226 238 256 335 336 263 258 312 338 336 323 320 287 291 292 282 270 258 246 227 228 229
141 148 221 206 169 185 221 242 241 227 200 170 138 119 183 147 170 191 177 200 239 225 237 263 334 329 358 19 4 23 20 3 347 326 307 291 282 271 276 264 231 205 239 226
183 230 257 210 190 149 189 189 210 212 165 157 146 145 190 154 232 215 220 240 234 211 222 283 326 327 11 34 84 13 16 8 349 340 339 323 283 258 253 257 228 239 229 214
216 247 235 242 241 242 203 196 205 193 165 204 166 219 255 127 226 225 200 218 264 239 270 311 318 321 1 107 28 29 355 350 341 333 329 315 285 272 253 243 225 220 205 207
Wind_Speed_850mb
42 39 43 43 32 12 17 13 4 29 23 13 6 7 5 8 20 19 13 9 13 9 10 11 9 8 10 23 9 8 9 7 9 8 4 8 14 7 3 11 11 4 0 10
37 34 42 44 34 20 7 5 15 25 10 7 7 6 9 13 14 16 11 8 12 10 7 10 11 8 10 25 11 6 3 6 9 5 7 3 6 8 6 2 1 8 13 12
33 30 36 40 31 21 10 4 3 18 33 13 7 6 7 6 16 12 12 8 5 7 11 10 10 8 12 12 16 20 9 7 5 3 9 4 3 4 7 5 7 15 3 27
32 26 32 36 28 24 10 10 5 5 6 14 13 4 3 6 8 9 21 9 12 5 9 15 9 8 8 16 16 10 5 7 9 12 9 2 1 4 2 1 7 5 28 21
30 21 26 31 23 22 24 8 5 11 8 3 4 8 5 6 4 8 8 14 17 9 8 1 12 10 3 1 8 6 4 9 9 5 7 2 2 3 9 6 7 15 29 20
26 17 19 26 22 17 14 16 13 7 5 3 1 2 4 5 2 11 8 9 9 18 12 11 13 14 13 8 2 5 4 12 8 8 6 3 7 8 7 11 7 6 20 15
22 16 14 20 25 20 17 14 7 5 5 2 3 7 3 7 4 7 5 4 5 8 18 28 26 27 22 15 15 6 12 10 2 8 10 9 9 5 6 21 13 14 22 17
18 15 8 13 17 22 19 13 6 4 6 3 7 10 7 8 3 4 6 5 9 20 11 6 7 5 4 9 12 5 3 7 6 8 13 4 9 13 15 12 9 7 13 12
17 14 4 5 10 13 15 14 8 3 11 7 6 10 9 6 6 5 5 4 12 10 5 4 8 8 6 7 6 5 6 4 6 6 8 12 8 15 13 10 12 25 13 5
15 13 6 2 6 9 7 11 9 3 1 7 14 7 8 11 6 5 4 8 7 7 5 5 5 6 1 8 10 9 5 2 14 11 9 4 12 23 19 14 8 27 15 8
13 11 9 4 5 7 7 6 9 6 4 8 19 15 13 11 10 7 11 9 5 5 8 6 6 5 8 4 3 7 13 12 7 5 10 14 33 19 13 16 24 21 14 12
10 12 10 8 5 8 10 10 12 10 7 7 9 22 18 12 2 16 19 0 6 9 6 4 5 5 7 6 6 5 9 7 6 13 5 5 28 5 18 18 21 20 19 13
10 9 9 9 9 10 11 8 10 11 7 11 7 10 25 27 27 18 7 9 14 12 12 12 5 5 8 9 9 8 11 9 5 5 11 12 22 13 10 11 9 16 15 12
10 11 10 10 8 10 12 13 12 5 3 3 7 7 11 9 20 30 35 25 15 12 17 7 5 5 13 6 4 7 3 20 12 8 10 4 19 28 21 20 16 20 17 16
12 12 11 11 9 10 11 9 7 10 6 2 10 11 16 29 7 17 25 19 16 15 9 4 4 6 8 4 4 7 21 13 11 10 18 14 7 15 21 26 24 24 20 21
14 11 10 9 7 9 8 5 8 11 16 4 3 9 16 31 8 8 13 14 10 7 5 7 2 8 5 6 6 7 32 26 16 4 19 15 15 15 14 16 16 19 24 22
9 4 4 5 6 3 7 6 6 4 6 5 4 4 9 17 15 14 15 7 6 6 7 5 2 2 9 4 6 6 3 20 24 19 17 17 23 10 16 17 15 17 19 20
1 1 2 8 16 15 9 6 8 4 2 4 2 1 2 18 8 6 7 6 7 7 5 3 2 2 3 7 14 9 15 20 35 32 32 13 15 22 17 17 18 21 21 20
1 2 16 12 5 4 5 12 11 7 6 3 4 4 4 12 9 8 7 7 5 3 1 2 3 1 6 11 17 13 13 17 15 27 33 33 27 23 25 25 26 27 23 23
3 6 5 5 4 6 10 7 4 2 1 2 4 2 3 8 4 6 3 7 4 1 4 1 4 5 21 19 23 23 22 21 16 14 22 30 32 32 26 28 29 27 22 24
6 5 4 8 6 4 3 4 2 1 2 4 4 5 1 4 2 4 2 3 3 1 1 3 2 5 5 5 7 8 12 13 11 24 25 20 20 19 23 28 26 24 22 20
9 7 11 8 2 1 1 3 3 5 1 6 4 5 2 3 3 4 5 1 3 1 4 4 3 6 8 6 3 7 6 5 9 10 12 16 21 25 29 26 25 23 19 16
7 5 5 2 1 5 1 2 2 3 8 11 9 6 3 4 4 4 4 4 3 1 4 4 6 12 13 8 10 6 10 10 11 18 16 15 18 21 23 24 25 25 19 12
4 6 2 5 5 4 5 4 2 2 5 11 11 7 6 5 7 3 4 3 3 4 4 3 3 7 6 6 6 7 13 15 19 17 14 17 22 23 21 23 28 26 21 13
3 4 5 8 4 4 4 6 5 5 6 11 9 5 5 4 4 3 2 5 5 5 3 4 6 14 6 5 3 8 13 16 17 19 23 28 23 23 22 24 17 15 18 23
3 6 6 5 4 5 6 8 5 5 7 12 5 5 3 3 2 5 5 3 5 2 5 8 11 5 5 8 8 9 16 20 25 25 22 18 22 24 25 16 24 27 34 28
5 6 12 13 5 6 5 10 9 11 11 3 5 4 1 6 5 5 6 6 7 8 9 8 11 8 6 3 6 11 15 21 21 22 22 22 21 16 24 28 27 27 31 26
Wind_Direction_850mb
353 0 360 359 1 15 33 27 56 357 21 43 32 57 15 15 2 23 57 70 61 65 45 66 92 98 10 342 349 43 21 74 64 88 53 347 37 56 359 231 178 63 19 112
352 1 360 357 1 7 21 85 39 13 48 82 78 80 74 57 38 31 27 54 43 56 68 102 83 89 21 32 49 42 34 38 127 161 212 161 48 33 46 60 283 181 195 134
352 360 3 358 3 20 41 53 51 33 61 62 77 75 29 89 46 58 54 46 100 116 57 50 122 110 47 42 68 57 86 72 337 300 69 46 180 28 29 339 225 151 69 138
352 359 6 3 8 25 52 55 69 56 34 43 68 60 40 49 29 48 27 57 43 91 113 104 105 101 94 49 16 49 53 98 93 75 72 3 335 322 349 86 94 300 145 117
349 355 9 14 17 41 61 89 132 83 77 14 61 14 45 74 63 11 37 83 56 85 97 56 151 137 112 133 43 62 22 126 137 101 10 343 180 105 138 134 92 92 126 105
346 352 12 25 29 40 73 93 101 114 23 53 107 72 132 107 116 47 90 118 84 73 64 63 74 81 86 95 111 105 84 143 176 152 6 185 227 171 134 110 79 149 169 112
346 349 8 26 42 57 73 80 82 94 93 105 98 147 125 128 106 129 117 105 101 120 112 93 83 80 81 74 53 33 139 123 94 137 157 218 74 76 155 112 91 104 116 117
346 348 355 22 30 51 64 68 55 96 115 132 147 143 134 123 91 115 121 97 108 147 135 113 123 114 155 67 33 13 306 149 131 191 206 25 185 185 166 182 172 169 150 139
341 355 321 9 6 28 51 63 71 74 124 214 136 158 171 163 162 162 141 124 154 162 77 144 189 186 162 172 158 51 85 71 227 174 216 218 103 156 147 156 226 188 186 162
344 358 348 307 337 355 11 40 31 48 158 189 177 197 185 164 146 159 162 159 155 154 143 176 187 173 111 171 191 171 152 92 214 201 239 244 155 151 150 197 122 160 166 177
336 349 356 320 300 321 329 337 347 9 280 248 214 222 188 170 185 184 150 154 176 128 185 197 170 183 194 181 197 191 180 177 193 196 226 244 155 140 202 115 137 164 179 188
327 336 354 340 338 325 313 310 315 310 275 261 255 236 231 235 159 197 176 335 157 156 122 168 136 154 174 196 208 189 211 217 193 212 234 75 175 95 139 151 162 184 187 191
311 316 326 327 350 353 341 340 320 327 299 293 305 255 243 238 238 235 214 229 208 191 167 148 136 210 169 175 222 198 210 189 237 215 190 206 191 192 183 187 185 187 186 200
307 297 306 309 324 341 334 337 339 3 315 348 56 76 6 312 247 243 235 239 217 186 167 147 158 204 207 194 151 210 168 163 188 248 249 275 239 229 225 223 229 218 225 253
315 306 281 287 316 335 340 359 35 52 54 2 323 88 27 355 267 228 216 234 224 172 156 144 188 134 173 175 177 209 187 177 183 213 204 186 166 198 213 227 237 228 244 262
316 296 268 278 322 340 354 75 72 74 37 39 20 5 19 16 62 151 177 191 190 179 168 119 8 318 263 212 221 240 203 209 216 178 186 184 171 189 212 216 221 229 244 260
319 289 265 298 332 51 90 89 354 357 352 25 338 45 12 27 57 73 89 100 61 65 44 80 127 223 244 211 225 47 217 223 230 223 186 190 207 210 208 206 209 229 253 274
310 256 313 100 109 111 73 35 49 73 122 40 2 15 77 19 47 78 59 82 77 55 149 189 298 79 276 247 248 217 238 247 286 239 214 209 183 193 203 215 231 249 266 283
155 99 135 107 82 83 96 89 98 59 64 82 52 17 21 4 57 48 50 55 69 45 70 227 150 176 237 234 254 251 201 240 271 219 209 220 228 229 233 238 246 253 264 281
171 155 143 124 91 119 122 105 99 102 18 82 113 158 18 9 62 57 68 40 47 1 61 155 277 269 265 267 254 260 266 281 239 187 210 226 237 241 252 249 245 243 255 272
195 166 112 124 125 126 128 105 116 101 223 192 168 192 347 18 8 110 60 132 164 45 61 306 329 275 262 320 345 257 236 290 247 237 249 255 244 240 256 255 246 238 251 271
170 126 123 114 125 121 169 80 139 224 42 184 165 161 199 182 136 132 168 191 186 121 146 266 254 255 278 276 239 26 35 237 251 249 268 270 261 263 262 250 238 237 249 276
147 117 93 121 129 72 116 88 166 244 183 178 169 167 186 147 160 111 191 218 216 109 201 236 246 284 299 305 239 280 341 322 297 264 261 270 283 276 254 244 247 236 242 265
149 134 50 198 181 215 182 209 217 233 194 176 171 143 186 166 177 146 251 100 226 235 226 238 256 335 336 263 258 312 338 336 323 320 287 291 292 282 270 258 246 227 228 229
141 148 221 206 169 185 221 242 241 227 200 170 138 119 183 147 170 191 177 200 239 225 237 263 334 329 358 19 4 23 20 3 347 326 307 291 282 271 276 264 231 205 239 226
183 230 257 210 190 149 189 189 210 212 165 157 146 145 190 154 232 215 220 240 234 211 222 283 326 327 11 34 84 13 16 8 349 340 339 323 283 258 253 257 228 239 229 214
216 247 235 242 241 242 203 196 205 193 165 204 166 219 255 127 226 225 200 218 264 239 270 311 318 321 1 107 28 29 355 350 341 333 329 315 285 272 253 243 225 220 205 207